Flag for Canada Weather past 2 weeks in Norfolk, Ontario, Canada

Now
17 °F

Cold.


Feels Like: 10 °F
Forecast: 13 / 24 °F
Wind: 5 mph from Northeast

Location: Delhi CS

Current Time: Feb 1, 2015 at 1:44:53 PM

Latest Report: Feb 1, 2015 at 1:00 PM


Visibility: N/A

Pressure: 30.13 "Hg

Humidity: 86%

Dew point: 14 °F

Location of NorfolkLocation

Historic Weather in Norfolk — Graph

°F

Norfolk temperature yesterday

Maximum temperature yesterday: 29 °F (at 11:00 PM)
Minimum temperature yesterday: 9 °F (at 6:00 AM)
Average temperature yesterday: 18 °F

Past Weeks' High & Low Weather Summary

 TemperatureHumidityPressure
High44 °F (Jan 18, 12:00 AM)100% (Jan 18, 8:00 AM)30.41 "Hg (Jan 18, 8:00 AM)
Low1 °F (Jan 28, 3:00 AM)28% (Jan 28, 4:00 PM)29.49 "Hg (Jan 24, 3:00 PM)
Average22 °F80%30.03 "Hg
* Reported Jan 17 12:00 Noon — Feb 1 12:00 Noon, Norfolk, Weather by CustomWeather, © 2014

Note: Actual official high and low records may vary slightly from our data, if they occured in-between our weather recording intervals... More about our weather records

Advertising

Norfolk weather history for previous 24 hours

 ConditionsComfort  
Time TempWeatherWind HumidityBarometerVisibility
12:00 PM
Feb 1
20 °FCold.3 mph86%30.15 "HgN/A
11:00 AM20 °FCold.3 mph85%30.18 "HgN/A
10:00 AM23 °FCold.3 mph92%30.21 "HgN/A
9:00 AM23 °FCold.1 mph94%30.21 "HgN/A
8:00 AM23 °FCold.1 mph88%30.19 "HgN/A
7:00 AM24 °FCold.3 mph79%30.20 "HgN/A
6:00 AM25 °FChilly.5 mph89%30.18 "HgN/A
5:00 AM25 °FChilly.1 mph93%30.18 "HgN/A
4:00 AM26 °FChilly.1 mph100%30.18 "HgN/A
3:00 AM26 °FChilly.2 mph93%30.18 "HgN/A
2:00 AM27 °FChilly.3 mph92%30.17 "HgN/A
1:00 AM27 °FChilly.3 mph88%30.17 "HgN/A
12:00 AM29 °FChilly.2 mph85%30.18 "HgN/A
11:00 PM
Jan 31
29 °FChilly.2 mph85%30.17 "HgN/A
10:00 PM27 °FChilly.3 mph91%30.18 "HgN/A
9:00 PM26 °FChilly.3 mph89%30.19 "HgN/A
8:00 PM26 °FChilly.5 mph87%30.20 "HgN/A
7:00 PM25 °FChilly.5 mph87%30.21 "HgN/A
6:00 PM24 °FCold.7 mph87%30.20 "HgN/A
5:00 PM23 °FCold.6 mph88%30.21 "HgN/A
4:00 PM22 °FCold.7 mph83%30.20 "HgN/A
3:00 PM22 °FCold.8 mph78%30.22 "HgN/A
2:00 PM22 °FCold.7 mph80%30.22 "HgN/A
1:00 PM22 °FCold.7 mph82%30.24 "HgN/A
Weather by CustomWeather, © 2014

See weather overviewHow to use our weather pages